| time (UTC) | temp F | wind direction | speed MPH | gust MPH | rain 1hr in | rain 24hr in | rain mn in | humidity % | barometer mb |
| 20260903161602 | 94 | 6 | 4.0 | 9.0 | 0.00 | 0.00 | 0.00 | 59 | 1014.2 |
| 20260903161401 | 94 | 295 | 3.0 | 9.0 | 0.00 | 0.00 | 0.00 | 60 | 1014.0 |
| 20260903160901 | 94 | 261 | 3.0 | 6.0 | 0.00 | 0.00 | 0.00 | 61 | 1014.1 |
| 20260903160400 | 93 | 341 | 4.0 | 11.0 | 0.00 | 0.00 | 0.00 | 62 | 1014.1 |
| 20260903160100 | 92 | 58 | 4.0 | 12.0 | 0.00 | 0.00 | 0.00 | 61 | 1014.2 |
| 20260903155902 | 93 | 259 | 5.0 | 11.0 | 0.00 | 0.00 | 0.00 | 62 | 1014.1 |
| 20260903155403 | 92 | 263 | 4.0 | 10.0 | 0.00 | 0.00 | 0.00 | 64 | 1013.9 |
| 20260903155126 | 92 | 205 | 4.0 | 11.0 | 0.00 | 0.00 | 0.00 | 65 | 1014.0 |
| 20260903155111 | 92 | 175 | 4.0 | 11.0 | 0.00 | 0.00 | 0.00 | 65 | 1013.9 |
| 20260903154554 | 91 | 105 | 4.0 | 10.0 | 0.00 | 0.00 | 0.00 | 64 | 1014.1 |
| 20260903153856 | 92 | 123 | 4.0 | 10.0 | 0.00 | 0.00 | 0.00 | 65 | 1013.9 |
| 20260903153355 | 91 | 331 | 2.0 | 9.0 | 0.00 | 0.00 | 0.00 | 66 | 1014.0 |
| 20260903153348 | 91 | 205 | 4.0 | 11.0 | 0.00 | 0.00 | 0.00 | 68 | 1014.1 |
| 20260903153106 | 90 | 174 | 3.0 | 10.0 | 0.00 | 0.00 | 0.00 | 67 | 1014.2 |
| 20260903152346 | 90 | 162 | 4.0 | 12.0 | 0.00 | 0.00 | 0.00 | 68 | 1014.2 |
| 20260903151842 | 89 | 264 | 6.0 | 12.0 | 0.00 | 0.00 | 0.00 | 70 | 1014.3 |
| 20260903151604 | 89 | 55 | 4.0 | 10.0 | 0.00 | 0.00 | 0.00 | 69 | 1014.4 |
| 20260903151343 | 89 | 248 | 4.0 | 9.0 | 0.00 | 0.00 | 0.00 | 71 | 1014.3 |
| 20260903150833 | 89 | 198 | 6.0 | 9.0 | 0.00 | 0.00 | 0.00 | 72 | 1014.2 |
| 20260903150329 | 89 | 168 | 4.0 | 8.0 | 0.00 | 0.00 | 0.00 | 73 | 1014.3 |
| 20260903150139 | 88 | 184 | 4.0 | 12.0 | 0.00 | 0.00 | 0.00 | 73 | 1014.5 |
| 20260903150106 | 88 | 54 | 4.0 | 10.0 | 0.00 | 0.00 | 0.00 | 74 | 1014.3 |
| 20260903145329 | 88 | 224 | 5.0 | 10.0 | 0.00 | 0.00 | 0.00 | 74 | 1014.3 |
| 20260903144829 | 87 | 340 | 4.0 | 10.0 | 0.00 | 0.00 | 0.00 | 75 | 1014.2 |
| 20260903144559 | 87 | 238 | 3.0 | 8.0 | 0.00 | 0.00 | 0.00 | 75 | 1014.5 |
| 20260903144328 | 87 | 273 | 4.0 | 8.0 | 0.00 | 0.00 | 0.00 | 75 | 1014.2 |
| 20260903143829 | 87 | 63 | 4.0 | 12.0 | 0.00 | 0.00 | 0.00 | 77 | 1014.2 |
| 20260903143328 | 87 | 150 | 4.0 | 12.0 | 0.00 | 0.00 | 0.00 | 77 | 1014.3 |
| 20260903143057 | 86 | 226 | 5.0 | 12.0 | 0.00 | 0.00 | 0.00 | 77 | 1014.5 |
| 20260903142831 | 87 | 216 | 4.0 | 10.0 | 0.00 | 0.00 | 0.00 | 77 | 1014.3 |
| 20260903142329 | 86 | 122 | 4.0 | 14.0 | 0.00 | 0.00 | 0.00 | 79 | 1014.3 |
| 20260903141829 | 86 | 11 | 4.0 | 14.0 | 0.00 | 0.00 | 0.00 | 79 | 1014.2 |
| 20260903141606 | 85 | 167 | 3.0 | 14.0 | 0.00 | 0.00 | 0.00 | 79 | 1014.5 |
| 20260903141328 | 86 | 283 | 2.0 | 8.0 | 0.00 | 0.00 | 0.00 | 80 | 1014.3 |
| 20260903140828 | 85 | 200 | 2.0 | 8.0 | 0.00 | 0.00 | 0.00 | 81 | 1014.5 |
| 20260903140328 | 85 | 203 | 2.0 | 8.0 | 0.00 | 0.00 | 0.00 | 81 | 1014.3 |
| 20260903140105 | 85 | 354 | 1.0 | 8.0 | 0.00 | 0.00 | 0.00 | 81 | 1014.6 |
| 20260903135831 | 85 | 252 | 2.0 | 8.0 | 0.00 | 0.00 | 0.00 | 82 | 1014.4 |
| 20260903135600 | 84 | 300 | 2.0 | 6.0 | 0.00 | 0.00 | 0.00 | 83 | 1014.3 |
| 20260903134830 | 84 | 109 | 3.0 | 7.0 | 0.00 | 0.00 | 0.00 | 83 | 1014.5 |
| 20260903134612 | 83 | 22 | 1.0 | 8.0 | 0.00 | 0.00 | 0.00 | 83 | 1014.5 |
| 20260903134556 | 84 | 230 | 2.0 | 8.0 | 0.00 | 0.00 | 0.00 | 84 | 1014.4 |
| 20260903133830 | 83 | 306 | 3.0 | 8.0 | 0.00 | 0.00 | 0.00 | 84 | 1014.3 |
| 20260903133330 | 83 | 101 | 2.0 | 5.0 | 0.00 | 0.00 | 0.00 | 84 | 1014.3 |
| 20260903133101 | 83 | 242 | 2.0 | 6.0 | 0.00 | 0.00 | 0.00 | 84 | 1014.4 |
| 20260903132829 | 83 | 247 | 1.0 | 6.0 | 0.00 | 0.00 | 0.00 | 85 | 1014.2 |
| 20260903132606 | 83 | 159 | 1.0 | 6.0 | 0.00 | 0.00 | 0.00 | 85 | 1014.3 |
| 20260903131829 | 83 | 189 | 2.0 | 6.0 | 0.00 | 0.00 | 0.00 | 85 | 1014.2 |
| 20260903131557 | 82 | 245 | 2.0 | 7.0 | 0.00 | 0.00 | 0.00 | 85 | 1014.3 |
| 20260903131329 | 83 | 150 | 3.0 | 6.0 | 0.00 | 0.00 | 0.00 | 85 | 1014.1 |
| 20260903130828 | 82 | 270 | 2.0 | 6.0 | 0.00 | 0.00 | 0.00 | 86 | 1014.0 |
| 20260903130328 | 82 | 152 | 2.0 | 5.0 | 0.00 | 0.00 | 0.00 | 86 | 1014.1 |
| 20260903130109 | 82 | 80 | 1.0 | 4.0 | 0.00 | 0.00 | 0.00 | 86 | 1014.4 |
| 20260903125830 | 82 | 217 | 1.0 | 4.0 | 0.00 | 0.00 | 0.00 | 86 | 1014.1 |
| 20260903125554 | 82 | 6 | 1.0 | 6.0 | 0.00 | 0.00 | 0.00 | 86 | 1014.1 |
| 20260903124829 | 82 | 341 | 2.0 | 6.0 | 0.00 | 0.00 | 0.00 | 86 | 1014.1 |
| 20260903124610 | 81 | 182 | 0.0 | 8.0 | 0.00 | 0.00 | 0.00 | 86 | 1014.2 |
| 20260903124552 | 82 | 271 | 1.0 | 6.0 | 0.00 | 0.00 | 0.00 | 86 | 1014.0 |
| 20260903124052 | 82 | 245 | 1.0 | 4.0 | 0.00 | 0.00 | 0.00 | 86 | 1013.9 |
| 20260903123329 | 82 | 354 | 1.0 | 5.0 | 0.00 | 0.00 | 0.00 | 86 | 1013.9 |
| 20260903123112 | 81 | 288 | 0.0 | 5.0 | 0.00 | 0.00 | 0.00 | 86 | 1014.2 |
| 20260903122830 | 82 | 122 | 1.0 | 5.0 | 0.00 | 0.00 | 0.00 | 86 | 1014.0 |
| 20260903122330 | 82 | 226 | 2.0 | 6.0 | 0.00 | 0.00 | 0.00 | 86 | 1013.9 |
| 20260903121829 | 82 | 324 | 2.0 | 6.0 | 0.00 | 0.00 | 0.00 | 86 | 1013.8 |
| 20260903121557 | 81 | 304 | 2.0 | 6.0 | 0.00 | 0.00 | 0.00 | 86 | 1014.1 |
| 20260903121329 | 82 | 157 | 2.0 | 6.0 | 0.00 | 0.00 | 0.00 | 86 | 1013.9 |
| 20260903120828 | 82 | 239 | 1.0 | 5.0 | 0.00 | 0.00 | 0.00 | 86 | 1014.0 |
| 20260903120329 | 82 | 65 | 2.0 | 5.0 | 0.00 | 0.00 | 0.00 | 86 | 1013.9 |
| 20260903120117 | 81 | 211 | 1.0 | 3.0 | 0.00 | 0.00 | 0.00 | 86 | 1014.1 |
| 20260903120106 | 82 | 193 | 0.0 | 3.0 | 0.00 | 0.00 | 0.00 | 86 | 1014.0 |
| 20260903115330 | 82 | 246 | 2.0 | 5.0 | 0.00 | 0.00 | 0.00 | 86 | 1013.9 |
| 20260903115054 | 82 | 275 | 2.0 | 6.0 | 0.00 | 0.00 | 0.00 | 86 | 1013.9 |
| 20260903114608 | 81 | 255 | 1.0 | 6.0 | 0.00 | 0.00 | 0.00 | 86 | 1014.1 |
| 20260903114330 | 82 | 316 | 2.0 | 6.0 | 0.00 | 0.00 | 0.00 | 86 | 1013.8 |
| 20260903113839 | 82 | 268 | 2.0 | 5.0 | 0.00 | 0.00 | 0.00 | 86 | 1013.7 |
| 20260903113328 | 82 | 41 | 3.0 | 5.0 | 0.00 | 0.00 | 0.00 | 86 | 1013.7 |
| 20260903113107 | 82 | 218 | 0.0 | 6.0 | 0.00 | 0.00 | 0.00 | 85 | 1013.9 |
| 20260903113054 | 82 | 107 | 1.0 | 6.0 | 0.00 | 0.00 | 0.00 | 86 | 1013.7 |
| 20260903112329 | 82 | 172 | 3.0 | 6.0 | 0.00 | 0.00 | 0.00 | 86 | 1013.9 |
| 20260903111829 | 82 | 244 | 2.0 | 5.0 | 0.00 | 0.00 | 0.00 | 86 | 1013.8 |
| 20260903111553 | 82 | 59 | 1.0 | 5.0 | 0.00 | 0.00 | 0.00 | 85 | 1014.0 |
| 20260903111329 | 82 | 180 | 2.0 | 5.0 | 0.00 | 0.00 | 0.00 | 86 | 1013.8 |
| 20260903110829 | 82 | 230 | 2.0 | 5.0 | 0.00 | 0.00 | 0.00 | 86 | 1013.8 |
| 20260903110328 | 82 | 31 | 1.0 | 5.0 | 0.00 | 0.00 | 0.00 | 85 | 1013.8 |
| 20260903110105 | 82 | 353 | 2.0 | 6.0 | 0.00 | 0.00 | 0.00 | 85 | 1014.0 |
| 20260903105836 | 82 | 203 | 2.0 | 5.0 | 0.00 | 0.00 | 0.00 | 85 | 1013.9 |
| 20260903105332 | 82 | 3 | 1.0 | 6.0 | 0.00 | 0.00 | 0.00 | 85 | 1013.7 |
| 20260903104843 | 82 | 39 | 2.0 | 6.0 | 0.00 | 0.00 | 0.00 | 85 | 1013.7 |
| 20260903104556 | 82 | 31 | 1.0 | 5.0 | 0.00 | 0.00 | 0.00 | 84 | 1013.8 |
| 20260903104332 | 83 | 323 | 1.0 | 6.0 | 0.00 | 0.00 | 0.00 | 85 | 1013.7 |
| 20260903103833 | 83 | 309 | 1.0 | 6.0 | 0.00 | 0.00 | 0.00 | 85 | 1013.7 |
| 20260903103328 | 83 | 167 | 2.0 | 7.0 | 0.00 | 0.00 | 0.00 | 85 | 1013.5 |
| 20260903103056 | 82 | 350 | 2.0 | 8.0 | 0.00 | 0.00 | 0.00 | 84 | 1013.8 |
| 20260903102829 | 83 | 101 | 2.0 | 8.0 | 0.00 | 0.00 | 0.00 | 85 | 1013.5 |
| 20260903102551 | 83 | 286 | 2.0 | 8.0 | 0.00 | 0.00 | 0.00 | 85 | 1013.6 |
| 20260903102108 | 83 | 83 | 2.0 | 8.0 | 0.00 | 0.00 | 0.00 | 84 | 1013.6 |
| 20260903101552 | 82 | 174 | 2.0 | 8.0 | 0.00 | 0.00 | 0.00 | 84 | 1013.8 |
| 20260903101329 | 83 | 50 | 2.0 | 8.0 | 0.00 | 0.00 | 0.00 | 84 | 1013.6 |
| 20260903100829 | 83 | 184 | 2.0 | 6.0 | 0.00 | 0.00 | 0.00 | 84 | 1013.6 |
| 20260903100552 | 83 | 69 | 3.0 | 6.0 | 0.00 | 0.00 | 0.00 | 84 | 1013.7 |
| 20260903100105 | 82 | 270 | 2.0 | 8.0 | 0.00 | 0.00 | 0.00 | 83 | 1013.8 |
| 20260903095830 | 83 | 354 | 2.0 | 7.0 | 0.00 | 0.00 | 0.00 | 84 | 1013.6 |
| 20260903095331 | 83 | 143 | 3.0 | 9.0 | 0.00 | 0.00 | 0.00 | 84 | 1013.7 |
| 20260903094832 | 83 | 166 | 3.0 | 9.0 | 0.00 | 0.00 | 0.00 | 84 | 1013.6 |
| 20260903094558 | 83 | 302 | 2.0 | 8.0 | 0.00 | 0.00 | 0.00 | 83 | 1013.9 |
| 20260903094330 | 83 | 288 | 4.0 | 9.0 | 0.00 | 0.00 | 0.00 | 83 | 1013.7 |
| 20260903093830 | 83 | 165 | 2.0 | 8.0 | 0.00 | 0.00 | 0.00 | 83 | 1013.8 |
| 20260903093329 | 83 | 333 | 4.0 | 9.0 | 0.00 | 0.00 | 0.00 | 83 | 1014.0 |
| 20260903093058 | 83 | 198 | 4.0 | 10.0 | 0.00 | 0.00 | 0.00 | 83 | 1014.2 |
| 20260903092829 | 83 | 4 | 3.0 | 9.0 | 0.00 | 0.00 | 0.00 | 83 | 1013.9 |
| 20260903092329 | 83 | 266 | 3.0 | 8.0 | 0.00 | 0.00 | 0.00 | 83 | 1014.1 |
| 20260903091829 | 83 | 18 | 4.0 | 10.0 | 0.00 | 0.00 | 0.00 | 83 | 1014.0 |
| 20260903091626 | 83 | 310 | 3.0 | 10.0 | 0.00 | 0.00 | 0.00 | 83 | 1014.2 |
| 20260903091329 | 83 | 183 | 2.0 | 11.0 | 0.00 | 0.00 | 0.00 | 83 | 1013.9 |
| 20260903090828 | 83 | 307 | 5.0 | 11.0 | 0.00 | 0.00 | 0.00 | 83 | 1014.0 |
| 20260903090616 | 83 | 246 | 4.0 | 12.0 | 0.00 | 0.00 | 0.00 | 83 | 1014.1 |
| 20260903085829 | 83 | 257 | 4.0 | 12.0 | 0.00 | 0.00 | 0.00 | 83 | 1014.1 |
| 20260903085329 | 83 | 149 | 4.0 | 10.0 | 0.00 | 0.00 | 0.00 | 83 | 1014.2 |
| 20260903084829 | 83 | 208 | 4.0 | 10.0 | 0.00 | 0.00 | 0.00 | 83 | 1014.0 |
| 20260903084558 | 83 | 290 | 5.0 | 10.0 | 0.00 | 0.00 | 0.00 | 82 | 1014.4 |
| 20260903084329 | 83 | 278 | 6.0 | 10.0 | 0.00 | 0.00 | 0.00 | 83 | 1014.2 |
| 20260903083829 | 83 | 53 | 3.0 | 10.0 | 0.00 | 0.00 | 0.00 | 83 | 1014.2 |
| 20260903083329 | 83 | 144 | 2.0 | 8.0 | 0.00 | 0.00 | 0.00 | 83 | 1014.3 |
| 20260903083106 | 83 | 287 | 3.0 | 7.0 | 0.00 | 0.00 | 0.00 | 82 | 1014.5 |
| 20260903082830 | 84 | 271 | 4.0 | 6.0 | 0.00 | 0.00 | 0.00 | 82 | 1014.4 |
| 20260903082330 | 84 | 274 | 3.0 | 11.0 | 0.00 | 0.00 | 0.00 | 82 | 1014.3 |
| 20260903081830 | 84 | 41 | 3.0 | 11.0 | 0.00 | 0.00 | 0.00 | 82 | 1014.2 |
| 20260903081607 | 83 | 203 | 3.0 | 10.0 | 0.00 | 0.00 | 0.00 | 82 | 1014.6 |
| 20260903081330 | 84 | 12 | 2.0 | 8.0 | 0.00 | 0.00 | 0.00 | 82 | 1014.2 |
| 20260903080828 | 84 | 348 | 4.0 | 6.0 | 0.00 | 0.00 | 0.00 | 82 | 1014.3 |
| 20260903080556 | 84 | 244 | 2.0 | 6.0 | 0.00 | 0.00 | 0.00 | 82 | 1014.3 |
| 20260903080103 | 83 | 162 | 3.0 | 9.0 | 0.00 | 0.00 | 0.00 | 82 | 1014.5 |
| 20260903075829 | 84 | 203 | 3.0 | 8.0 | 0.00 | 0.00 | 0.00 | 82 | 1014.3 |
| 20260903075329 | 84 | 354 | 2.0 | 8.0 | 0.00 | 0.00 | 0.00 | 82 | 1014.3 |
| 20260903074829 | 84 | 13 | 3.0 | 8.0 | 0.00 | 0.00 | 0.00 | 82 | 1014.3 |
| 20260903074627 | 84 | 356 | 2.0 | 12.0 | 0.00 | 0.00 | 0.00 | 82 | 1014.5 |
| 20260903074555 | 84 | 339 | 3.0 | 12.0 | 0.00 | 0.00 | 0.00 | 82 | 1014.3 |
| 20260903073828 | 84 | 126 | 3.0 | 12.0 | 0.00 | 0.00 | 0.00 | 82 | 1014.3 |
| 20260903073329 | 84 | 168 | 4.0 | 9.0 | 0.00 | 0.00 | 0.00 | 82 | 1014.3 |
| 20260903073059 | 84 | 205 | 4.0 | 8.0 | 0.00 | 0.00 | 0.00 | 81 | 1014.5 |
| 20260903072831 | 84 | 216 | 4.0 | 9.0 | 0.00 | 0.00 | 0.00 | 82 | 1014.2 |
| 20260903072330 | 84 | 228 | 4.0 | 11.0 | 0.00 | 0.00 | 0.00 | 82 | 1014.3 |
| 20260903072314 | 84 | 314 | 4.0 | 11.0 | 0.00 | 0.00 | 0.00 | 81 | 1014.2 |
| 20260903071607 | 84 | 216 | 4.0 | 12.0 | 0.00 | 0.00 | 0.00 | 81 | 1014.5 |
| 20260903071330 | 85 | 324 | 4.0 | 9.0 | 0.00 | 0.00 | 0.00 | 81 | 1014.5 |
| 20260903071323 | 85 | 29 | 4.0 | 16.0 | 0.00 | 0.00 | 0.00 | 81 | 1014.5 |
| 20260903070328 | 85 | 340 | 6.0 | 16.0 | 0.00 | 0.00 | 0.00 | 81 | 1014.5 |
| 20260903070115 | 84 | 151 | 3.0 | 10.0 | 0.00 | 0.00 | 0.00 | 80 | 1014.6 |
| 20260903065829 | 85 | 245 | 4.0 | 8.0 | 0.00 | 0.00 | 0.00 | 81 | 1014.5 |
| 20260903065329 | 85 | 262 | 4.0 | 8.0 | 0.00 | 0.00 | 0.00 | 81 | 1014.4 |
| 20260903064829 | 85 | 60 | 4.0 | 10.0 | 0.00 | 0.00 | 0.00 | 81 | 1014.6 |
| 20260903064555 | 84 | 41 | 3.0 | 10.0 | 0.00 | 0.00 | 0.00 | 81 | 1014.6 |
| 20260903064552 | 85 | 56 | 4.0 | 10.0 | 0.00 | 0.00 | 0.00 | 81 | 1014.6 |
| 20260903063829 | 85 | 268 | 5.0 | 9.0 | 0.00 | 0.00 | 0.00 | 81 | 1014.6 |
| 20260903063328 | 85 | 290 | 2.0 | 10.0 | 0.00 | 0.00 | 0.00 | 81 | 1014.5 |
| 20260903063105 | 84 | 296 | 3.0 | 16.0 | 0.00 | 0.00 | 0.00 | 81 | 1014.7 |
| 20260903063056 | 85 | 101 | 4.0 | 13.0 | 0.00 | 0.00 | 0.00 | 81 | 1014.6 |
| 20260903062556 | 85 | 288 | 4.0 | 13.0 | 0.00 | 0.00 | 0.00 | 81 | 1014.6 |
| 20260903061829 | 85 | 198 | 4.0 | 8.0 | 0.00 | 0.00 | 0.00 | 81 | 1014.5 |
| 20260903061611 | 84 | 212 | 2.0 | 9.0 | 0.00 | 0.00 | 0.00 | 81 | 1014.7 |
| 20260903061329 | 85 | 304 | 1.0 | 7.0 | 0.00 | 0.00 | 0.00 | 82 | 1014.6 |
| 20260903061054 | 85 | 132 | 3.0 | 8.0 | 0.00 | 0.00 | 0.00 | 81 | 1014.6 |
| 20260903060328 | 85 | 250 | 3.0 | 10.0 | 0.00 | 0.00 | 0.00 | 81 | 1014.6 |
| 20260903060100 | 85 | 259 | 3.0 | 9.0 | 0.00 | 0.00 | 0.00 | 81 | 1014.8 |
| 20260903055830 | 85 | 98 | 4.0 | 10.0 | 0.00 | 0.00 | 0.00 | 81 | 1014.6 |
| 20260903055330 | 85 | 112 | 3.0 | 8.0 | 0.00 | 0.00 | 0.00 | 81 | 1014.7 |
| 20260903055101 | 85 | 103 | 2.0 | 10.0 | 0.00 | 0.00 | 0.00 | 81 | 1014.7 |
| 20260903054602 | 85 | 149 | 4.0 | 10.0 | 0.00 | 0.00 | 0.00 | 80 | 1014.9 |
| 20260903054329 | 85 | 53 | 4.0 | 10.0 | 0.00 | 0.00 | 0.00 | 81 | 1014.7 |
| 20260903053829 | 85 | 172 | 1.0 | 9.0 | 0.00 | 0.00 | 0.00 | 80 | 1014.7 |
| 20260903053329 | 85 | 85 | 4.0 | 9.0 | 0.00 | 0.00 | 0.00 | 80 | 1014.7 |
| 20260903053101 | 85 | 342 | 3.0 | 10.0 | 0.00 | 0.00 | 0.00 | 80 | 1014.9 |
| 20260903052830 | 85 | 184 | 3.0 | 7.0 | 0.00 | 0.00 | 0.00 | 80 | 1014.6 |
| 20260903052555 | 85 | 168 | 3.0 | 7.0 | 0.00 | 0.00 | 0.00 | 81 | 1014.6 |
| 20260903051830 | 85 | 271 | 3.0 | 8.0 | 0.00 | 0.00 | 0.00 | 81 | 1014.7 |
| 20260903051603 | 85 | 314 | 3.0 | 8.0 | 0.00 | 0.00 | 0.00 | 80 | 1014.9 |
| 20260903051330 | 85 | 160 | 2.0 | 9.0 | 0.00 | 0.00 | 0.00 | 81 | 1014.7 |
| 20260903050830 | 85 | 284 | 2.0 | 10.0 | 0.00 | 0.00 | 0.00 | 80 | 1014.7 |
| 20260903050552 | 86 | 146 | 3.0 | 10.0 | 0.00 | 0.00 | 0.00 | 80 | 1014.7 |
| 20260903050111 | 85 | 156 | 3.0 | 14.0 | 0.00 | 0.00 | 0.00 | 80 | 1014.9 |
| 20260903045829 | 86 | 321 | 3.0 | 10.0 | 0.00 | 0.00 | 0.00 | 80 | 1014.8 |
| 20260903045329 | 86 | 240 | 3.0 | 10.0 | 0.00 | 0.00 | 0.00 | 80 | 1014.7 |
| 20260903044829 | 86 | 63 | 2.0 | 9.0 | 0.00 | 0.00 | 0.00 | 80 | 1014.9 |
| 20260903044605 | 85 | 301 | 3.0 | 10.0 | 0.00 | 0.00 | 0.00 | 79 | 1015.0 |
| 20260903044329 | 86 | 242 | 5.0 | 9.0 | 0.00 | 0.00 | 0.00 | 80 | 1014.8 |
| 20260903043829 | 86 | 261 | 3.0 | 13.0 | 0.00 | 0.00 | 0.00 | 79 | 1014.9 |
| 20260903043551 | 86 | 330 | 3.0 | 13.0 | 0.00 | 0.00 | 0.00 | 79 | 1014.9 |
| 20260903043103 | 85 | 274 | 4.0 | 13.0 | 0.00 | 0.00 | 0.00 | 78 | 1015.2 |
| 20260903042829 | 86 | 342 | 4.0 | 8.0 | 0.00 | 0.00 | 0.00 | 79 | 1015.1 |
| 20260903042329 | 86 | 90 | 2.0 | 10.0 | 0.00 | 0.00 | 0.00 | 78 | 1015.1 |
| 20260903041829 | 86 | 293 | 5.0 | 10.0 | 0.00 | 0.00 | 0.00 | 78 | 1015.0 |
| 20260903041611 | 86 | 145 | 3.0 | 13.0 | 0.00 | 0.00 | 0.00 | 77 | 1015.3 |
| 20260903041328 | 86 | 124 | 4.0 | 9.0 | 0.00 | 0.00 | 0.00 | 77 | 1015.0 |
| 20260903040828 | 86 | 345 | 3.0 | 10.0 | 0.00 | 0.00 | 0.00 | 77 | 1015.0 |
| 20260903040329 | 86 | 238 | 4.0 | 11.0 | 0.00 | 0.00 | 0.00 | 77 | 1015.0 |
| 20260903040109 | 86 | 64 | 6.0 | 11.0 | 0.00 | 0.00 | 0.00 | 77 | 1015.2 |
| 20260903040106 | 87 | 187 | 6.0 | 11.0 | 0.00 | 0.00 | 0.00 | 77 | 1015.0 |
| 20260903035332 | 87 | 60 | 3.0 | 8.0 | 0.00 | 0.00 | 0.00 | 77 | 1015.0 |
| 20260903034844 | 87 | 165 | 4.0 | 10.0 | 0.00 | 0.00 | 0.00 | 77 | 1014.9 |
| 20260903034600 | 86 | 249 | 5.0 | 12.0 | 0.00 | 0.00 | 0.00 | 77 | 1015.0 |
| 20260903034330 | 87 | 52 | 5.0 | 11.0 | 0.00 | 0.00 | 0.00 | 77 | 1014.9 |
| 20260903033830 | 87 | 237 | 4.0 | 13.0 | 0.00 | 0.00 | 0.00 | 76 | 1014.9 |
| 20260903033329 | 87 | 43 | 3.0 | 13.0 | 0.00 | 0.00 | 0.00 | 76 | 1014.9 |
| 20260903033101 | 86 | 40 | 5.0 | 12.0 | 0.00 | 0.00 | 0.00 | 76 | 1015.0 |
| 20260903032829 | 87 | 115 | 6.0 | 13.0 | 0.00 | 0.00 | 0.00 | 76 | 1014.8 |
| 20260903032329 | 87 | 349 | 4.0 | 13.0 | 0.00 | 0.00 | 0.00 | 76 | 1014.7 |
| 20260903031829 | 87 | 129 | 4.0 | 11.0 | 0.00 | 0.00 | 0.00 | 76 | 1014.5 |
| 20260903031556 | 87 | 255 | 4.0 | 11.0 | 0.00 | 0.00 | 0.00 | 75 | 1014.9 |
| 20260903031329 | 87 | 269 | 2.0 | 9.0 | 0.00 | 0.00 | 0.00 | 76 | 1014.5 |
| 20260903031051 | 87 | 160 | 4.0 | 9.0 | 0.00 | 0.00 | 0.00 | 76 | 1014.6 |
| 20260903030328 | 87 | 208 | 4.0 | 7.0 | 0.00 | 0.00 | 0.00 | 76 | 1014.3 |
| 20260903025831 | 87 | 284 | 3.0 | 11.0 | 0.00 | 0.00 | 0.00 | 75 | 1014.2 |
| 20260903025811 | 87 | 96 | 5.0 | 13.0 | 0.00 | 0.00 | 0.00 | 75 | 1014.2 |
| 20260903024830 | 87 | 308 | 5.0 | 13.0 | 0.00 | 0.00 | 0.00 | 75 | 1014.1 |
| 20260903024604 | 87 | 35 | 3.0 | 11.0 | 0.00 | 0.00 | 0.00 | 74 | 1014.1 |
| 20260903024343 | 87 | 195 | 5.0 | 10.0 | 0.00 | 0.00 | 0.00 | 75 | 1014.1 |
| 20260903023841 | 88 | 339 | 5.0 | 10.0 | 0.00 | 0.00 | 0.00 | 75 | 1013.9 |
| 20260903023337 | 88 | 290 | 6.0 | 10.0 | 0.00 | 0.00 | 0.00 | 75 | 1013.7 |
| 20260903023057 | 87 | 263 | 5.0 | 12.0 | 0.00 | 0.00 | 0.00 | 74 | 1014.0 |
| 20260903022831 | 88 | 86 | 5.0 | 11.0 | 0.00 | 0.00 | 0.00 | 75 | 1013.7 |
| 20260903022331 | 88 | 309 | 6.0 | 11.0 | 0.00 | 0.00 | 0.00 | 74 | 1013.6 |
| 20260903021830 | 88 | 332 | 5.0 | 10.0 | 0.00 | 0.00 | 0.00 | 74 | 1013.6 |
| 20260903021555 | 88 | 306 | 4.0 | 11.0 | 0.00 | 0.00 | 0.00 | 73 | 1013.7 |
| 20260903021330 | 88 | 136 | 5.0 | 10.0 | 0.00 | 0.00 | 0.00 | 73 | 1013.4 |
| 20260903021105 | 89 | 75 | 4.0 | 11.0 | 0.00 | 0.00 | 0.00 | 73 | 1013.3 |
| 20260903020606 | 89 | 321 | 4.0 | 11.0 | 0.00 | 0.00 | 0.00 | 72 | 1013.2 |
| 20260903020117 | 89 | 257 | 4.0 | 13.0 | 0.00 | 0.00 | 0.00 | 71 | 1013.1 |
| 20260903020058 | 88 | 295 | 6.0 | 12.0 | 0.00 | 0.00 | 0.00 | 71 | 1013.3 |
| 20260903015552 | 89 | 359 | 6.0 | 13.0 | 0.00 | 0.00 | 0.00 | 70 | 1012.9 |
| 20260903015317 | 89 | 76 | 4.0 | 13.0 | 0.00 | 0.00 | 0.00 | 70 | 1012.9 |
| 20260903014613 | 89 | 337 | 4.0 | 13.0 | 0.00 | 0.00 | 0.00 | 68 | 1013.1 |
| 20260903014329 | 90 | 39 | 3.0 | 13.0 | 0.00 | 0.00 | 0.00 | 68 | 1012.8 |
| 20260903013828 | 90 | 152 | 6.0 | 10.0 | 0.00 | 0.00 | 0.00 | 67 | 1012.9 |
| 20260903013329 | 91 | 316 | 5.0 | 12.0 | 0.00 | 0.00 | 0.00 | 66 | 1012.8 |
| 20260903013107 | 90 | 248 | 5.0 | 13.0 | 0.00 | 0.00 | 0.00 | 65 | 1013.0 |
| 20260903012814 | 91 | 129 | 6.0 | 12.0 | 0.00 | 0.00 | 0.00 | 65 | 1012.7 |
| 20260903012551 | 91 | 221 | 6.0 | 11.0 | 0.00 | 0.00 | 0.00 | 64 | 1012.6 |
| 20260903011809 | 92 | 181 | 4.0 | 10.0 | 0.00 | 0.00 | 0.00 | 62 | 1012.5 |
| 20260903011622 | 91 | 37 | 5.0 | 11.0 | 0.00 | 0.00 | 0.00 | 61 | 1012.5 |
| 20260903011306 | 92 | 185 | 5.0 | 11.0 | 0.00 | 0.00 | 0.00 | 61 | 1012.4 |
| 20260903010806 | 92 | 65 | 4.0 | 11.0 | 0.00 | 0.00 | 0.00 | 60 | 1012.3 |
| 20260903010301 | 93 | 167 | 5.0 | 9.0 | 0.00 | 0.00 | 0.00 | 58 | 1012.2 |
| 20260903010108 | 92 | 47 | 4.0 | 11.0 | 0.00 | 0.00 | 0.00 | 57 | 1012.3 |
| 20260903005802 | 93 | 315 | 3.0 | 10.0 | 0.00 | 0.00 | 0.00 | 57 | 1012.1 |
| 20260903005259 | 93 | 232 | 5.0 | 10.0 | 0.00 | 0.00 | 0.00 | 57 | 1012.1 |
| 20260903004753 | 94 | 162 | 4.0 | 9.0 | 0.00 | 0.00 | 0.00 | 56 | 1012.0 |
| 20260903004608 | 93 | 184 | 5.0 | 10.0 | 0.00 | 0.00 | 0.00 | 56 | 1012.2 |
| 20260903004249 | 94 | 242 | 4.0 | 9.0 | 0.00 | 0.00 | 0.00 | 56 | 1012.0 |
| 20260903003744 | 95 | 21 | 3.0 | 9.0 | 0.00 | 0.00 | 0.00 | 54 | 1011.9 |
| 20260903003238 | 95 | 259 | 4.0 | 11.0 | 0.00 | 0.00 | 0.00 | 53 | 1011.9 |
| 20260903003125 | 95 | 285 | 3.0 | 10.0 | 0.00 | 0.00 | 0.00 | 51 | 1012.2 |
| 20260903002954 | 96 | 160 | 4.0 | 11.0 | 0.00 | 0.00 | 0.00 | 50 | 1011.7 |
| 20260903002229 | 96 | 23 | 4.0 | 9.0 | 0.00 | 0.00 | 0.00 | 48 | 1011.7 |
| 20260903001951 | 96 | 252 | 4.0 | 13.0 | 0.00 | 0.00 | 0.00 | 49 | 1011.8 |
| 20260903001603 | 96 | 65 | 4.0 | 13.0 | 0.00 | 0.00 | 0.00 | 49 | 1011.9 |
| 20260903001229 | 96 | 134 | 6.0 | 13.0 | 0.00 | 0.00 | 0.00 | 49 | 1011.7 |
| 20260903000729 | 96 | 42 | 6.0 | 10.0 | 0.00 | 0.00 | 0.00 | 49 | 1011.6 |
| 20260903000229 | 97 | 225 | 5.0 | 14.0 | 0.00 | 0.00 | 0.00 | 49 | 1011.8 |
| 20260903000054 | 97 | 75 | 3.0 | 13.0 | 0.00 | 0.00 | 0.00 | 48 | 1011.9 |
| 20260902235728 | 98 | 202 | 3.0 | 14.0 | 0.00 | 0.00 | 0.00 | 49 | 1011.6 |
| 20260902235229 | 98 | 158 | 4.0 | 11.0 | 0.00 | 0.00 | 0.00 | 48 | 1011.7 |
| 20260902234730 | 98 | 195 | 4.0 | 9.0 | 0.00 | 0.00 | 0.00 | 44 | 1011.6 |
| 20260902234554 | 98 | 302 | 4.0 | 9.0 | 0.00 | 0.00 | 0.00 | 43 | 1011.8 |
| 20260902234229 | 99 | 338 | 3.0 | 8.0 | 0.00 | 0.00 | 0.00 | 42 | 1011.4 |
| 20260902233957 | 99 | 110 | 3.0 | 10.0 | 0.00 | 0.00 | 0.00 | 40 | 1011.6 |
| 20260902233228 | 99 | 289 | 5.0 | 11.0 | 0.00 | 0.00 | 0.00 | 40 | 1011.6 |
| 20260902233104 | 99 | 1 | 4.0 | 11.0 | 0.00 | 0.00 | 0.00 | 39 | 1011.8 |
| 20260902232729 | 99 | 131 | 4.0 | 11.0 | 0.00 | 0.00 | 0.00 | 40 | 1011.4 |
| 20260902232229 | 100 | 148 | 4.0 | 9.0 | 0.00 | 0.00 | 0.00 | 40 | 1011.6 |
| 20260902231729 | 100 | 184 | 4.0 | 9.0 | 0.00 | 0.00 | 0.00 | 39 | 1011.4 |
| 20260902231603 | 100 | 144 | 4.0 | 11.0 | 0.00 | 0.00 | 0.00 | 39 | 1011.7 |
| 20260902231454 | 101 | 204 | 4.0 | 9.0 | 0.00 | 0.00 | 0.00 | 39 | 1011.4 |
| 20260902230729 | 101 | 90 | 5.0 | 8.0 | 0.00 | 0.00 | 0.00 | 39 | 1011.6 |
| 20260902230229 | 101 | 221 | 4.0 | 9.0 | 0.00 | 0.00 | 0.00 | 40 | 1011.6 |
| 20260902230059 | 101 | 79 | 4.0 | 11.0 | 0.00 | 0.00 | 0.00 | 39 | 1011.7 |
| 20260902225950 | 101 | 350 | 4.0 | 9.0 | 0.00 | 0.00 | 0.00 | 40 | 1011.6 |
| 20260902225231 | 102 | 340 | 4.0 | 12.0 | 0.00 | 0.00 | 0.00 | 40 | 1011.6 |
| 20260902224731 | 102 | 15 | 5.0 | 12.0 | 0.00 | 0.00 | 0.00 | 40 | 1011.6 |
| 20260902224625 | 101 | 277 | 3.0 | 10.0 | 0.00 | 0.00 | 0.00 | 40 | 1011.8 |
| 20260902224230 | 102 | 4 | 3.0 | 10.0 | 0.00 | 0.00 | 0.00 | 41 | 1011.7 |
| 20260902223731 | 102 | 240 | 4.0 | 9.0 | 0.00 | 0.00 | 0.00 | 41 | 1011.6 |
| 20260902223238 | 102 | 200 | 3.0 | 9.0 | 0.00 | 0.00 | 0.00 | 41 | 1011.6 |
| 20260902223100 | 101 | 115 | 3.0 | 10.0 | 0.00 | 0.00 | 0.00 | 42 | 1011.8 |
| 20260902222729 | 102 | 351 | 4.0 | 11.0 | 0.00 | 0.00 | 0.00 | 42 | 1011.4 |
| 20260902222230 | 102 | 20 | 5.0 | 11.0 | 0.00 | 0.00 | 0.00 | 42 | 1011.4 |
| 20260902221958 | 103 | 295 | 3.0 | 8.0 | 0.00 | 0.00 | 0.00 | 43 | 1011.4 |
| 20260902221557 | 102 | 319 | 2.0 | 11.0 | 0.00 | 0.00 | 0.00 | 42 | 1011.7 |
| 20260902221229 | 102 | 219 | 5.0 | 11.0 | 0.00 | 0.00 | 0.00 | 42 | 1011.6 |
| 20260902220728 | 102 | 138 | 4.0 | 11.0 | 0.00 | 0.00 | 0.00 | 43 | 1011.4 |
| 20260902220229 | 102 | 236 | 5.0 | 10.0 | 0.00 | 0.00 | 0.00 | 42 | 1011.4 |
| 20260902220101 | 102 | 186 | 3.0 | 10.0 | 0.00 | 0.00 | 0.00 | 41 | 1011.7 |
| 20260902220016 | 102 | 117 | 4.0 | 9.0 | 0.00 | 0.00 | 0.00 | 42 | 1011.4 |
| 20260902215229 | 102 | 12 | 5.0 | 10.0 | 0.00 | 0.00 | 0.00 | 43 | 1011.6 |
| 20260902214952 | 102 | 302 | 4.0 | 10.0 | 0.00 | 0.00 | 0.00 | 43 | 1011.6 |
| 20260902214556 | 102 | 248 | 4.0 | 10.0 | 0.00 | 0.00 | 0.00 | 42 | 1011.7 |
| 20260902214229 | 102 | 216 | 5.0 | 9.0 | 0.00 | 0.00 | 0.00 | 44 | 1011.6 |
| 20260902213729 | 103 | 209 | 5.0 | 9.0 | 0.00 | 0.00 | 0.00 | 43 | 1011.6 |
| 20260902213229 | 102 | 252 | 4.0 | 9.0 | 0.00 | 0.00 | 0.00 | 45 | 1011.6 |
| 20260902213106 | 102 | 321 | 4.0 | 10.0 | 0.00 | 0.00 | 0.00 | 44 | 1011.9 |
| 20260902212954 | 102 | 239 | 6.0 | 9.0 | 0.00 | 0.00 | 0.00 | 46 | 1011.8 |
| 20260902212448 | 101 | 73 | 4.0 | 9.0 | 0.00 | 0.00 | 0.00 | 44 | 1011.6 |
| 20260902211721 | 102 | 46 | 4.0 | 9.0 | 0.00 | 0.00 | 0.00 | 45 | 1011.8 |
| 20260902211558 | 101 | 120 | 3.0 | 8.0 | 0.00 | 0.00 | 0.00 | 44 | 1012.0 |
| 20260902211216 | 102 | 91 | 2.0 | 8.0 | 0.00 | 0.00 | 0.00 | 44 | 1011.8 |
| 20260902210951 | 102 | 311 | 3.0 | 6.0 | 0.00 | 0.00 | 0.00 | 44 | 1011.9 |
| 20260902210209 | 103 | 311 | 3.0 | 8.0 | 0.00 | 0.00 | 0.00 | 43 | 1011.9 |
| 20260902210108 | 102 | 205 | 2.0 | 8.0 | 0.00 | 0.00 | 0.00 | 42 | 1012.2 |
| 20260902205707 | 103 | 91 | 3.0 | 8.0 | 0.00 | 0.00 | 0.00 | 42 | 1012.0 |
| 20260902205429 | 103 | 221 | 3.0 | 7.0 | 0.00 | 0.00 | 0.00 | 41 | 1012.1 |
| 20260902204703 | 104 | 272 | 4.0 | 7.0 | 0.00 | 0.00 | 0.00 | 43 | 1012.1 |
| 20260902204554 | 103 | 126 | 3.0 | 9.0 | 0.00 | 0.00 | 0.00 | 42 | 1012.3 |
| 20260902204203 | 104 | 244 | 4.0 | 9.0 | 0.00 | 0.00 | 0.00 | 40 | 1012.2 |
| 20260902203701 | 105 | 111 | 5.0 | 9.0 | 0.00 | 0.00 | 0.00 | 40 | 1012.2 |
| 20260902203425 | 105 | 311 | 4.0 | 9.0 | 0.00 | 0.00 | 0.00 | 39 | 1012.2 |
| 20260902203052 | 104 | 290 | 3.0 | 7.0 | 0.00 | 0.00 | 0.00 | 39 | 1012.4 |
| 20260902202701 | 105 | 326 | 3.0 | 6.0 | 0.00 | 0.00 | 0.00 | 39 | 1012.4 |
| 20260902202200 | 104 | 222 | 3.0 | 7.0 | 0.00 | 0.00 | 0.00 | 39 | 1012.5 |
| 20260902201703 | 104 | 65 | 3.0 | 7.0 | 0.00 | 0.00 | 0.00 | 39 | 1012.5 |
| 20260902201602 | 103 | 65 | 2.0 | 7.0 | 0.00 | 0.00 | 0.00 | 39 | 1012.8 |
| 20260902201201 | 104 | 245 | 2.0 | 7.0 | 0.00 | 0.00 | 0.00 | 40 | 1012.6 |
| 20260902200922 | 104 | 230 | 3.0 | 7.0 | 0.00 | 0.00 | 0.00 | 39 | 1012.8 |
| 20260902200201 | 103 | 130 | 2.0 | 7.0 | 0.00 | 0.00 | 0.00 | 39 | 1012.8 |
| 20260902200056 | 103 | 94 | 2.0 | 7.0 | 0.00 | 0.00 | 0.00 | 40 | 1013.0 |
| 20260902195701 | 103 | 245 | 4.0 | 8.0 | 0.00 | 0.00 | 0.00 | 40 | 1013.0 |
| 20260902195200 | 103 | 13 | 2.0 | 8.0 | 0.00 | 0.00 | 0.00 | 40 | 1013.1 |
| 20260902195148 | 103 | 103 | 3.0 | 9.0 | 0.00 | 0.00 | 0.00 | 41 | 1013.2 |
| 20260902194556 | 102 | 101 | 3.0 | 8.0 | 0.00 | 0.00 | 0.00 | 40 | 1013.5 |
| 20260902194203 | 103 | 162 | 4.0 | 9.0 | 0.00 | 0.00 | 0.00 | 38 | 1013.4 |
| 20260902193703 | 103 | 233 | 3.0 | 9.0 | 0.00 | 0.00 | 0.00 | 41 | 1013.4 |
| 20260902193202 | 103 | 211 | 3.0 | 6.0 | 0.00 | 0.00 | 0.00 | 41 | 1013.4 |
| 20260902193100 | 102 | 190 | 2.0 | 8.0 | 0.00 | 0.00 | 0.00 | 40 | 1013.6 |
| 20260902192702 | 103 | 0 | 3.0 | 7.0 | 0.00 | 0.00 | 0.00 | 44 | 1013.4 |
| 20260902192202 | 102 | 250 | 4.0 | 8.0 | 0.00 | 0.00 | 0.00 | 43 | 1013.7 |
| 20260902191701 | 102 | 110 | 4.0 | 8.0 | 0.00 | 0.00 | 0.00 | 42 | 1013.6 |
| 20260902191606 | 101 | 105 | 4.0 | 8.0 | 0.00 | 0.00 | 0.00 | 42 | 1013.8 |
| 20260902191423 | 102 | 347 | 4.0 | 8.0 | 0.00 | 0.00 | 0.00 | 43 | 1013.8 |
| 20260902190701 | 101 | 325 | 2.0 | 7.0 | 0.00 | 0.00 | 0.00 | 45 | 1013.9 |
| 20260902190201 | 101 | 261 | 3.0 | 9.0 | 0.00 | 0.00 | 0.00 | 44 | 1014.0 |
| 20260902190056 | 101 | 304 | 3.0 | 9.0 | 0.00 | 0.00 | 0.00 | 44 | 1014.2 |
| 20260902185701 | 101 | 6 | 5.0 | 11.0 | 0.00 | 0.00 | 0.00 | 46 | 1014.0 |
| 20260902185200 | 101 | 295 | 3.0 | 13.0 | 0.00 | 0.00 | 0.00 | 44 | 1014.1 |
| 20260902184703 | 101 | 344 | 5.0 | 13.0 | 0.00 | 0.00 | 0.00 | 45 | 1014.2 |
| 20260902184603 | 101 | 210 | 3.0 | 9.0 | 0.00 | 0.00 | 0.00 | 44 | 1014.4 |
| 20260902184203 | 101 | 198 | 3.0 | 7.0 | 0.00 | 0.00 | 0.00 | 46 | 1014.2 |
| 20260902183733 | 101 | 167 | 3.0 | 11.0 | 0.00 | 0.00 | 0.00 | 46 | 1014.4 |
| 20260902183202 | 101 | 255 | 5.0 | 11.0 | 0.00 | 0.00 | 0.00 | 47 | 1014.5 |
| 20260902183103 | 100 | 185 | 2.0 | 8.0 | 0.00 | 0.00 | 0.00 | 47 | 1014.6 |
| 20260902182702 | 101 | 20 | 3.0 | 7.0 | 0.00 | 0.00 | 0.00 | 47 | 1014.5 |
| 20260902182208 | 101 | 200 | 3.0 | 7.0 | 0.00 | 0.00 | 0.00 | 48 | 1014.5 |
| 20260902181703 | 100 | 320 | 3.0 | 14.0 | 0.00 | 0.00 | 0.00 | 48 | 1014.5 |
| 20260902181557 | 99 | 17 | 2.0 | 13.0 | 0.00 | 0.00 | 0.00 | 46 | 1014.9 |
| 20260902181203 | 100 | 119 | 6.0 | 14.0 | 0.00 | 0.00 | 0.00 | 47 | 1014.8 |
| 20260902180702 | 100 | 316 | 3.0 | 9.0 | 0.00 | 0.00 | 0.00 | 49 | 1014.8 |
| 20260902180206 | 100 | 302 | 4.0 | 9.0 | 0.00 | 0.00 | 0.00 | 50 | 1015.0 |
| 20260902180126 | 99 | 240 | 2.0 | 11.0 | 0.00 | 0.00 | 0.00 | 49 | 1015.3 |
| 20260902175701 | 99 | 34 | 2.0 | 12.0 | 0.00 | 0.00 | 0.00 | 49 | 1015.1 |
| 20260902175201 | 99 | 40 | 5.0 | 12.0 | 0.00 | 0.00 | 0.00 | 50 | 1015.2 |
| 20260902174702 | 98 | 27 | 2.0 | 7.0 | 0.00 | 0.00 | 0.00 | 54 | 1015.3 |
| 20260902174648 | 98 | 174 | 3.0 | 7.0 | 0.00 | 0.00 | 0.00 | 51 | 1015.5 |
| 20260902174201 | 98 | 205 | 3.0 | 10.0 | 0.00 | 0.00 | 0.00 | 53 | 1015.5 |
| 20260902173925 | 98 | 2 | 4.0 | 10.0 | 0.00 | 0.00 | 0.00 | 51 | 1015.5 |
| 20260902173200 | 98 | 143 | 4.0 | 8.0 | 0.00 | 0.00 | 0.00 | 52 | 1015.5 |
| 20260902173057 | 97 | 291 | 2.0 | 8.0 | 0.00 | 0.00 | 0.00 | 52 | 1015.8 |
| 20260902172701 | 97 | 122 | 4.0 | 8.0 | 0.00 | 0.00 | 0.00 | 53 | 1015.6 |
| 20260902172200 | 97 | 105 | 4.0 | 13.0 | 0.00 | 0.00 | 0.00 | 54 | 1015.7 |
| 20260902171923 | 97 | 50 | 5.0 | 13.0 | 0.00 | 0.00 | 0.00 | 53 | 1015.8 |
| 20260902171609 | 97 | 56 | 2.0 | 10.0 | 0.00 | 0.00 | 0.00 | 52 | 1015.9 |
| 20260902171201 | 97 | 319 | 4.0 | 9.0 | 0.00 | 0.00 | 0.00 | 54 | 1015.8 |
| 20260902170701 | 97 | 297 | 4.0 | 8.0 | 0.00 | 0.00 | 0.00 | 54 | 1015.8 |
| 20260902170424 | 97 | 146 | 2.0 | 8.0 | 0.00 | 0.00 | 0.00 | 54 | 1016.0 |
| 20260902170054 | 96 | 128 | 3.0 | 11.0 | 0.00 | 0.00 | 0.00 | 55 | 1016.1 |
| 20260902165700 | 96 | 250 | 2.0 | 11.0 | 0.00 | 0.00 | 0.00 | 54 | 1015.9 |
| 20260902165201 | 96 | 229 | 6.0 | 11.0 | 0.00 | 0.00 | 0.00 | 56 | 1015.9 |
| 20260902164700 | 96 | 205 | 3.0 | 6.0 | 0.00 | 0.00 | 0.00 | 57 | 1016.1 |
| 20260902164559 | 96 | 148 | 2.0 | 6.0 | 0.00 | 0.00 | 0.00 | 56 | 1016.4 |
| 20260902164201 | 96 | 20 | 3.0 | 6.0 | 0.00 | 0.00 | 0.00 | 58 | 1016.2 |
| 20260902163701 | 96 | 307 | 2.0 | 7.0 | 0.00 | 0.00 | 0.00 | 58 | 1016.2 |
| 20260902163201 | 95 | 65 | 3.0 | 8.0 | 0.00 | 0.00 | 0.00 | 60 | 1016.4 |
| 20260902163104 | 94 | 311 | 4.0 | 8.0 | 0.00 | 0.00 | 0.00 | 58 | 1016.5 |
| 20260902162700 | 95 | 278 | 3.0 | 8.0 | 0.00 | 0.00 | 0.00 | 60 | 1016.3 |
| 20260902162201 | 94 | 236 | 2.0 | 10.0 | 0.00 | 0.00 | 0.00 | 61 | 1016.3 |